Estación Meteorológica Peña el Pijo (Robertgarden) [ 09/29/20 11:07:19 CEST ]

Fecha Hora Presion(HPa) Temp (°C) Humedad % Rocio (°C) Viento ( m/s) Direccion Lluvia 1Hora(mm) Lluvia 24H(mm) LLuvia Total(mm)
2020-Apr-03 01:09:35 1003.400 - - - - N     39.88
2020-Apr-03 02:08:57 1003.200 - - - - N     39.88
2020-Apr-03 03:09:55 1003.000 - - - - N     39.88
2020-Apr-03 04:13:18 1002.900 - - - - N     39.88
2020-Apr-03 05:09:04 1003.000 - - - - N     39.88
2020-Apr-03 06:09:13 1003.400 - - - - N     39.88
2020-Apr-03 07:09:08 1003.800 - - - - N     39.88
2020-Apr-03 08:09:01 1004.200 - - - - N     39.88
2020-Apr-03 09:09:04 1004.800 - - - - N     39.88
2020-Apr-03 10:09:06 1005.200 - - - - N     39.88
2020-Apr-03 11:06:04 1005.500 - - - - N     39.88
2020-Apr-03 12:09:25 1005.900 - - - - N     39.88
2020-Apr-03 13:08:29 1005.800 - - - - N     39.88
2020-Apr-03 14:08:47 1005.300 - - - - N     39.88
2020-Apr-03 15:09:23 1005.000 - - - - N     39.88
2020-Apr-03 16:09:04 1004.800 - - - - N     39.88
2020-Apr-03 17:09:23 1004.500 - - - - N     39.88
2020-Apr-03 18:09:53 1004.400 - - - - N     39.88
2020-Apr-03 19:09:08 1004.400 - - - - N     39.88
2020-Apr-03 20:09:10 1004.600 - - - - N     39.88
2020-Apr-03 21:08:51 1005.100 - - - - N     39.88
2020-Apr-03 22:09:18 1005.800 - - - - N     39.88
2020-Apr-03 23:09:03 1006.400 - - - - N     39.88

Temperatura Máxima:    Temperatura Mínima:
Presión Máxima:1006.400 Hpa    Presión Mínima:1002.900 Hpa


Volver